Find OneWeb SL0328

NORAD ID: 49197 Int'l Des: 2021-083 Owner: ONEWEBN Country: UK Constellation: oneweb operational
LEOCIRCULARPOLARONEWEB_TYPE

实时位置

正在加载3D地球...

关于 OneWeb SL0328

正在加载描述...

即将过境

Passes for default location (London). Set your location on the main map for personalized predictions.

高度历史

Loading altitude history...

两行轨道根数

1 49197U 21083M 26127.54258993 .00000344 00000-0 90619-3 0 9996
2 49197 87.8958 328.3046 0001651 89.9505 270.1814 13.13471361225565
Epoch: May 7, 2026 • Age: 13 hours

当前状态

高度 1219.7 km
速度 7.25 km/s
星下点 63.96°N, 118.16°W
发射日期 Sep 14, 2021
运行时间 4.6 years
类型 internet

技术详情

分类 Payload
质量 148.00 kg
干质量 140.00 kg
总质量 148.00 kg
长度 1.30 m
直径 1.00 m
跨度 5.00 m
形状 Trapezoid+2 pan
制造商 ONEWUS
平台类型 ARROW
阶段状态 In Orbit
所有者/国家 ONEWEBN/UK

Most Searched